TimeCET,TemperatureF,Dew PointF,Humidity,Sea Level PressureIn,VisibilityMPH,Wind Direction,Wind SpeedMPH,Gust SpeedMPH,PrecipitationIn,Events,Conditions,WindDirDegrees,DateUTC
12:00 AM,39.2,39.2,100,29.56,0.2,Variable,1.2,-,N/A,Fog,Fog,0,2013-03-09 23:00:00
12:30 AM,39.2,39.2,100,29.56,0.2,Variable,1.2,-,N/A,Fog,Fog,0,2013-03-09 23:30:00
1:00 AM,39,39,99,29.60,0,Calm,Calm,,,Fog,Heavy Fog,,2013-03-10 00:00:00
1:00 AM,39.2,39.2,100,29.56,0.2,Calm,Calm,-,N/A,Fog,Fog,0,2013-03-10 00:00:00
1:30 AM,39.2,39.2,100,29.56,0.2,Variable,1.2,-,N/A,Fog,Fog,0,2013-03-10 00:30:00
2:00 AM,39.2,39.2,100,29.53,0.3,Variable,1.2,-,N/A,Fog,Fog,0,2013-03-10 01:00:00
2:30 AM,39.2,39.2,100,29.53,0.2,Variable,1.2,-,N/A,Fog,Fog,0,2013-03-10 01:30:00
3:00 AM,39.2,39.2,100,29.53,0.4,North,1.2,-,N/A,Fog,Fog,360,2013-03-10 02:00:00
3:30 AM,39.2,39.2,100,29.53,0.4,Calm,Calm,-,N/A,Fog,Fog,0,2013-03-10 02:30:00
4:00 AM,39.2,39.2,100,29.53,0.4,East,1.2,-,N/A,Fog,Fog,90,2013-03-10 03:00:00
4:30 AM,39.2,39.2,100,29.50,0.4,SE,3.5,-,N/A,Fog,Fog,130,2013-03-10 03:30:00
4:45 AM,39.2,39.2,100,29.53,0.5,South,4.6,-,N/A,Fog,Fog,190,2013-03-10 03:45:00
5:00 AM,39.2,39.2,100,29.53,0.4,South,4.6,-,N/A,Fog,Fog,180,2013-03-10 04:00:00
5:30 AM,39.2,39.2,100,29.50,0.4,SSE,4.6,-,N/A,Fog,Fog,160,2013-03-10 04:30:00
6:00 AM,39.2,39.2,100,29.50,0.4,SSE,5.8,-,N/A,Fog,Fog,160,2013-03-10 05:00:00
6:30 AM,39.2,39.2,100,29.47,0.3,South,4.6,-,N/A,Fog,Fog,170,2013-03-10 05:30:00
7:00 AM,38,38,100,29.54,0,South,2.2,,,Fog,Partial Fog,180,2013-03-10 06:00:00
7:00 AM,39.2,37.4,93,29.47,0.4,SSE,3.5,-,N/A,Fog,Fog,160,2013-03-10 06:00:00
7:07 AM,37.4,37.4,100,29.50,0.4,Variable,2.3,-,N/A,Fog,Fog,0,2013-03-10 06:07:00
7:17 AM,37.4,37.4,100,29.47,0.5,Variable,1.2,-,N/A,Fog,Fog,0,2013-03-10 06:17:00
7:30 AM,39.2,37.4,93,29.50,0.4,Variable,2.3,-,N/A,Fog,Fog,0,2013-03-10 06:30:00
7:51 AM,39.2,39.2,100,29.50,0.2,Variable,2.3,-,N/A,Fog,Fog,0,2013-03-10 06:51:00
8:00 AM,39.2,39.2,100,29.50,0.2,West,3.5,-,N/A,Fog,Fog,260,2013-03-10 07:00:00
8:16 AM,41.0,39.2,93,29.50,0.3,Variable,2.3,-,N/A,Fog,Fog,0,2013-03-10 07:16:00
8:30 AM,41.0,41.0,100,29.50,1.2,WSW,4.6,-,N/A,Fog,Overcast,240,2013-03-10 07:30:00
9:00 AM,41.0,41.0,100,29.47,1.6,WSW,8.1,-,N/A,,Overcast,240,2013-03-10 08:00:00
9:30 AM,41.0,41.0,100,29.47,-9999.0,SW,10.4,-,N/A,,Overcast,220,2013-03-10 08:30:00
9:42 AM,42.8,42.8,100,29.47,2.8,SW,9.2,-,N/A,,Overcast,230,2013-03-10 08:42:00
9:49 AM,42.8,42.8,100,29.47,3.1,SW,9.2,-,N/A,,Mostly Cloudy,230,2013-03-10 08:49:00
10:00 AM,42.8,42.8,100,29.47,3.1,SW,9.2,-,N/A,,Mostly Cloudy,230,2013-03-10 09:00:00
10:18 AM,44.6,44.6,100,29.47,4.3,WSW,10.4,-,N/A,,Mostly Cloudy,240,2013-03-10 09:18:00
10:30 AM,46.4,44.6,93,29.47,4.3,WSW,9.2,-,N/A,,Mostly Cloudy,240,2013-03-10 09:30:00
10:47 AM,46.4,44.6,93,29.47,6.2,SSW,10.4,-,N/A,,Mostly Cloudy,210,2013-03-10 09:47:00
11:00 AM,46.4,46.4,100,29.47,6.2,SSW,10.4,-,N/A,,Mostly Cloudy,210,2013-03-10 10:00:00
11:18 AM,48.2,44.6,87,29.47,6.2,SSW,10.4,-,N/A,,Scattered Clouds,210,2013-03-10 10:18:00
11:30 AM,48.2,44.6,87,29.47,6.2,SSW,9.2,-,N/A,,Scattered Clouds,210,2013-03-10 10:30:00
12:00 PM,48.2,41.0,76,29.47,6.2,WSW,12.7,-,N/A,,Scattered Clouds,240,2013-03-10 11:00:00
12:30 PM,50.0,42.8,76,29.47,6.2,SW,10.4,-,N/A,,Scattered Clouds,220,2013-03-10 11:30:00
1:00 PM,51,43,65,29.48,12,SW,11.2,,,,Partly Cloudy,230,2013-03-10 12:00:00
1:00 PM,51.8,42.8,71,29.47,6.2,SW,10.4,-,N/A,,Mostly Cloudy,220,2013-03-10 12:00:00
1:30 PM,51.8,41.0,67,29.44,6.2,NW,8.1,-,N/A,,Mostly Cloudy,320,2013-03-10 12:30:00
2:00 PM,50.0,42.8,76,29.44,6.2,North,3.5,-,N/A,,Scattered Clouds,10,2013-03-10 13:00:00
2:30 PM,50.0,42.8,76,29.44,6.2,Calm,Calm,-,N/A,,Scattered Clouds,0,2013-03-10 13:30:00
3:00 PM,51.8,37.4,58,29.44,6.2,WSW,9.2,-,N/A,,Scattered Clouds,240,2013-03-10 14:00:00
3:30 PM,53.6,37.4,54,29.44,6.2,WSW,9.2,-,N/A,,Scattered Clouds,240,2013-03-10 14:30:00
4:00 PM,53.6,37.4,54,29.44,6.2,SW,10.4,-,N/A,,Scattered Clouds,230,2013-03-10 15:00:00
4:30 PM,51.8,39.2,62,29.42,6.2,West,5.8,-,N/A,,Scattered Clouds,260,2013-03-10 15:30:00
5:00 PM,51.8,37.4,58,29.42,6.2,West,8.1,-,N/A,,Partly Cloudy,260,2013-03-10 16:00:00
5:30 PM,50.0,39.2,66,29.42,6.2,North,5.8,-,N/A,,Partly Cloudy,350,2013-03-10 16:30:00
6:00 PM,46.4,39.2,76,29.42,6.2,NE,8.1,-,N/A,,Partly Cloudy,50,2013-03-10 17:00:00
6:30 PM,44.6,39.2,81,29.42,6.2,ENE,8.1,-,N/A,,Partly Cloudy,70,2013-03-10 17:30:00
7:00 PM,43,41,89,29.47,5,East,8.9,,,,Mist,90,2013-03-10 18:00:00
7:00 PM,42.8,41.0,93,29.42,5.0,East,9.2,-,N/A,,Unknown,90,2013-03-10 18:00:00
7:30 PM,44.6,42.8,93,29.42,3.1,East,9.2,-,N/A,,Mist,90,2013-03-10 18:30:00
8:00 PM,44.6,42.8,93,29.42,3.1,East,6.9,-,N/A,,Mist,100,2013-03-10 19:00:00
8:30 PM,42.8,41.0,93,29.42,3.1,Variable,2.3,-,N/A,,Partly Cloudy,0,2013-03-10 19:30:00
9:00 PM,42.8,42.8,100,29.42,3.1,South,4.6,-,N/A,,Scattered Clouds,170,2013-03-10 20:00:00
9:20 PM,44.6,41.0,87,29.42,4.3,South,8.1,-,N/A,Rain,Light Rain,170,2013-03-10 20:20:00
9:30 PM,44.6,41.0,87,29.42,6.2,South,8.1,-,N/A,Rain,Light Rain,180,2013-03-10 20:30:00
10:00 PM,44.6,39.2,81,29.42,6.2,WSW,13.8,-,N/A,Rain,Light Rain,240,2013-03-10 21:00:00
10:30 PM,42.8,41.0,93,29.42,6.2,SW,9.2,-,N/A,Rain,Light Rain,220,2013-03-10 21:30:00
11:00 PM,44.6,41.0,87,29.42,6.2,SW,13.8,-,N/A,Rain,Light Rain,230,2013-03-10 22:00:00
11:30 PM,42.8,41.0,93,29.42,6.2,SW,13.8,-,N/A,Rain,Light Rain,220,2013-03-10 22:30:00